Steven Brobbey

Scout - PSV
4 Dec 2028
Monday
Process

Personality

Adaptability (9) Ambition (7) Controversy (12) Loyalty (16) Pressure (16) Professionalism (7) Sportsmanship (5) Temperament (2)

Profile

Coaching Style Democratic
License National A
Determination 15
Man Management 6
Motivating 16
Discipline 13
Job Satisfaction
96%
Fatigue
0%
Role Scout
Wage 18.8K p/w
Contract 14.03.2029

Performance

Behaviour Good
Training Effectiveness
58%
Player Development
45%
Injury Prevention
40%
Tactical Implementation
80%

Recent Events

Attended a recruitment meeting now
Recommended a transfer target now
Recommended a transfer target now
Attended a recruitment meeting 7d ago
Recommended a transfer target 7d ago
Recommended a transfer target 7d ago
Recommended a transfer target 7d ago
Recommended a transfer target 7d ago

Currently Monitoring

69
Player Club Status Ability Confidence Watched Last Observed Latest Vote
Ties Wieggers De Graafschap Active 126 / 126 30% 1 / 1m 08.11.2028 -
Tyrique Mercera Groningen Active 126 / 118 86% 1 21.08.2028 Approve
Temirlan Anarbekov Kairat Active 123 / 127 40% 1 17.08.2028 -
Alex Kouto Horio Pisano Nagoya Grampus Active 119 / 138 40% 1 17.08.2028 -
Valerio Boffelli Cavese Active 114 / 117 40% 2 16.08.2028 -
Muhammadyusuf Sobirov Bunyodkor Active 113 / 133 40% 1 16.08.2028 -
Alexey Ploschadny Noah Active 124 / 134 40% 1 16.08.2028 -
Karl Etta Eyong Real Sociedad Active 154 / 154 40% 1 14.08.2028 -
Lorenzo Colombo Genoa Active 145 / 139 40% 1 14.08.2028 -
Cristian Santander Barranquilla Active 120 / 119 40% 1 07.08.2028 -
Guillaume Restes Toulouse FC Lost 149 / 157 40% 1 24.07.2028 -
Robert Cook Accrington Stanley Active 114 / 112 40% 1 24.07.2028 -
Jorthy Mokio ADO Den Haag Active 136 / 147 40% 1 17.07.2028 -
Riquelme Thompson-Jones Accrington Stanley Negotiating 115 / 121 40% 1 17.07.2028 -
Simone Suppa Virtus Verona Active 88 / 95 40% 1 17.07.2028 -
Ryunosuke Sato Eibar Active 139 / 132 40% 9 10.07.2028 -
Héctor Fort Real Sociedad Active 148 / 154 40% 7 10.07.2028 -
Aarón Ochoa Málaga Active 120 / 121 40% 3 10.07.2028 -
Joaquín Panichelli Twente Report Ready 148 / 146 86% 1 03.07.2028 -
Tristan van Gilst Heracles Report Ready 126 / 130 86% 1 26.06.2028 -
Pau Cubarsí Real Sociedad Active 160 / 166 40% 1 21.06.2028 -
Cheveyo Tsawa Club Brugge Active 126 / 137 40% 1 21.06.2028 -
Mohammed El Âdfaoui Westerlo Active 118 / 128 40% 1 21.06.2028 -
Esmir Bajraktarević De Graafschap Report Ready 131 / 139 86% 1 12.06.2028 -
Gaoussou Diarra Heerenveen Lost 128 / 123 86% 1 07.06.2028 -
Illaijh de Ruijter ADO Den Haag Report Ready 120 / 124 86% 1 04.06.2028 -
Ricardo Pepi Mallorca Active 150 / 147 40% 2 01.06.2028 -
Pau Víctor Braga Active 146 / 148 40% 1 01.06.2028 -
Jayden Danns Bradford City Active 138 / 137 40% 1 01.06.2028 -
Nicolò Tresoldi Club Brugge Active 138 / 139 40% 1 31.05.2028 -
Ryan McAidoo Oldham Athletic Active 123 / 137 40% 5 29.05.2028 -
Rio Ngumoha Plymouth Argyle Active 144 / 149 40% 2 29.05.2028 -
Mateus Mané Burnley Active 144 / 152 40% 4 28.05.2028 -
Babis Kostoulas Oxford United Active 141 / 138 40% 4 27.05.2028 -
Trey Nyoni Rotherham United Active 141 / 137 40% 4 27.05.2028 -
Eli Junior Kroupi Bournemouth Active 147 / 149 40% 4 26.05.2028 -
Amin Nabizada Exeter City Active 111 / 119 40% 4 25.05.2028 -
Ibrahim Fullah Charlton Athletic Active 120 / 128 40% 2 25.05.2028 -
Kevin Fulham Active 157 / 156 40% 2 25.05.2028 -
Shea Lacey Crystal Palace Active 132 / 137 40% 1 23.05.2028 -
Josh Nichols Oldham Athletic Active 120 / 124 40% 7 21.05.2028 -
Luca Williams-Barnett Walsall Active 125 / 124 40% 5 20.05.2028 -
Ez Abde Betis Active 159 / 156 40% 2 20.05.2028 -
Ben Gannon Doak Charlton Athletic Active 153 / 152 40% 1 20.05.2028 -
Honest Ahanor Atalanta Active 137 / 140 40% 5 17.05.2028 -
Gabe Forsyth Colchester United Active 111 / 110 40% 2 17.05.2028 -
Omar Khedr Gillingham Active 116 / 121 40% 4 16.05.2028 -
Jorge Salinas Racing Santander Active 135 / 145 40% 2 15.05.2028 -
Ryan Kavuma-McQueen Accrington Stanley Active 119 / 126 40% 6 14.05.2028 -
Jan Bürger Northampton Town Active 123 / 131 40% 4 13.05.2028 -
Jonathan Dubasin Osasuna Active 151 / 156 40% 1 11.05.2028 -
Jaidon Anthony Derby County Active 142 / 131 40% 1 10.05.2028 -
Malick Fofana Sunderland Active 151 / 155 40% 1 10.05.2028 -
Iliman N'Diaye Everton Active 163 / 168 40% 1 10.05.2028 -
Hugo Camberos Dorados Active 136 / 142 40% 4 07.05.2028 -
Ben Broggio Mansfield Town Active 110 / 125 40% 5 07.05.2028 -
Jan Virgili Club Brugge Active 137 / 140 40% 2 06.05.2028 -
Marc Bernal Sevilla Active 146 / 149 40% 1 06.05.2028 -
Gilberto Mora Guadalajara Active 141 / 140 40% 4 03.05.2028 -
Sindre Walle Egeli Udinese Active 138 / 145 40% 4 01.05.2028 -
Mustafa Hekimoğlu Antalyaspor Active 133 / 129 40% 1 30.04.2028 -
Igor Tyjon Barrow AFC Active 117 / 131 40% 1 30.04.2028 -
Gabriel Mec Feirense Active 125 / 130 40% 1 19.04.2028 -
Julien Duranville Olympique Lyonnais Active 138 / 142 40% 2 14.04.2028 -
Oscar Schwartau Norwich City Active 130 / 141 40% 1 09.04.2028 -
Luca Meirelles Kudrivka Active 120 / 126 40% 1 06.04.2028 -
Mexx Meerdink AZ Active 132 / 120 86% 1 18.01.2027 Approve
Victor Jensen Utrecht Active 120 / 134 83% 1 24.08.2026 Approve
Alonzo Engwanda Utrecht Active 122 / 125 83% 1 17.08.2026 Approve